Weather History for KRYT - March, 2013

Change the Weather History Date:

Wednesday, March 6, 2013

  Actual Average (KHGR) Record (KHGR)
Temperature  
Mean Temperature 36 °F 38 °F  
Max Temperature 41 °F 47 °F 73 °F (2009)
Min Temperature 32 °F 29 °F 2 °F (2015)
Degree Days  
Heating Degree Days 28 27  
Month to date heating degree days 166  
Since 1 July heating degree days 4069  
Cooling Degree Days 0 0  
Month to date cooling degree days 0  
Year to date cooling degree days 0  
Moisture  
Dew Point 30 °F    
Average Humidity 79    
Maximum Humidity 93    
Minimum Humidity 57    
Precipitation  
Precipitation 0.63 in 0.09 in 1.12 in (2011)
Month to date precipitation 0.48  
Year to date precipitation 5.71  
Sea Level Pressure  
Sea Level Pressure 29.80 in    
Wind  
Wind Speed 8 mph (NE)    
Max Wind Speed 21 mph    
Max Gust Speed 34 mph    
Visibility 4 miles    
Events Fog , Snow    
T = Trace of Precipitation, MM = Missing Value Source: NWS Daily Summary

Daily Weather History Graph

Daily Weather History Graph

Search for Another Location

Airport or City:

Trip Planner

Search our weather history database for the weather conditions in past years. The results will help you decide how hot, cold, wet, or windy it might be!

Date:

Astronomy

Mar. 06, 2013 Rise Set
Actual Time 6:34 AM EST 6:07 PM EST
Civil Twilight 6:07 AM EST 6:34 PM EST
Nautical Twilight 5:36 AM EST 7:05 PM EST
Astronomical Twilight 5:05 AM EST 7:37 PM EST
Moon 2:41 AM EST (3/6) 12:47 PM EST (3/6)
Length of Visible Light 12h 26m
Length of Day
11h 32m
Waning Crescent, 30% of the Moon is Illuminated
Mar 6
Waning Crescent
Mar 11
New
Mar 19
First Quarter
Mar 27
Full
Apr 3
Last Quarter

Hourly Weather History & Observations

Time (EST) Temp. Windchill Dew Point Humidity Pressure Visibility Wind Dir Wind Speed Gust Speed Precip Events Conditions
12:53 AM 36.0 °F 33.3 °F 28.0 °F 73% 29.80 in 1.8 mi Variable 3.5 mph - 0.00 in Snow Light Snow
1:36 AM 33.8 °F 30.8 °F 30.2 °F 87% 29.75 in 1.0 mi Variable 3.5 mph - 0.02 in Snow Light Snow
1:53 AM 33.1 °F 30.0 °F 30.0 °F 89% 29.77 in 0.8 mi Variable 3.5 mph - 0.03 in Snow Light Snow
2:35 AM 33.8 °F 28.6 °F 28.4 °F 81% 29.70 in 0.2 mi Variable 5.8 mph - 0.09 in Fog , Snow Heavy Snow
2:53 AM 33.1 °F 28.7 °F 28.9 °F 85% 29.73 in 0.5 mi Variable 4.6 mph - 0.13 in Fog , Snow Snow
3:53 AM 32.0 °F 26.4 °F 28.9 °F 88% 29.73 in 0.5 mi Variable 5.8 mph - 0.14 in Fog , Snow Snow
4:25 AM 33.8 °F 27.0 °F 30.2 °F 87% 29.69 in 0.5 mi NNE 8.1 mph - 0.07 in Fog , Snow Snow
4:53 AM 32.0 °F 24.8 °F 28.9 °F 88% 29.72 in 0.5 mi NE 8.1 mph 17.3 mph 0.11 in Fog , Snow Snow
5:53 AM 33.1 °F 26.1 °F 30.0 °F 89% 29.73 in 0.5 mi NE 8.1 mph 21.9 mph 0.06 in Fog , Snow Snow
6:53 AM 34.0 °F 24.2 °F 30.0 °F 85% 29.72 in 0.5 mi NE 15.0 mph 25.3 mph 0.08 in Fog , Snow Snow
7:06 AM 33.8 °F 25.3 °F 30.2 °F 87% 29.68 in 0.2 mi ENE 11.5 mph 24.2 mph 0.01 in Fog , Snow Snow
7:53 AM 34.0 °F 24.6 °F 30.9 °F 89% 29.73 in 0.2 mi NE 13.8 mph 25.3 mph 0.05 in Fog , Snow Snow
8:53 AM 34.0 °F 23.8 °F 30.9 °F 89% 29.74 in 0.8 mi NE 16.1 mph 27.6 mph 0.02 in Snow Light Snow
9:04 AM 35.6 °F 25.5 °F 30.2 °F 81% 29.70 in 1.2 mi NNE 17.3 mph 27.6 mph 0.00 in Snow Light Snow
9:53 AM 35.1 °F 25.5 °F 30.9 °F 85% 29.75 in 0.5 mi NE 15.0 mph 26.5 mph 0.01 in Fog , Snow Snow
11:01 AM 35.6 °F 24.5 °F 30.2 °F 81% 29.73 in 1.2 mi NE 20.7 mph 31.1 mph 0.00 in Snow Light Snow
11:19 AM 35.6 °F 25.2 °F 33.8 °F 93% 29.73 in 2.0 mi NE 18.4 mph 31.1 mph 0.00 in Snow Light Snow
11:53 AM 36.0 °F 25.6 °F 33.1 °F 89% 29.78 in 5.0 mi NE 18.4 mph 34.5 mph 0.00 in Snow Light Snow
12:53 PM 37.0 °F 26.4 °F 30.0 °F 76% 29.80 in 10.0 mi NE 20.7 mph 32.2 mph 0.00 in   Overcast
1:53 PM 37.0 °F 28.5 °F 30.0 °F 76% 29.83 in 7.0 mi NE 13.8 mph 27.6 mph 0.00 in Snow Light Snow
3:23 PM 37.4 °F 29.3 °F 30.2 °F 75% 29.83 in 10.0 mi NNE 12.7 mph 21.9 mph N/A   Overcast
3:53 PM 39.0 °F 32.8 °F 30.0 °F 70% 29.89 in 10.0 mi NE 9.2 mph - N/A   Overcast
5:53 PM 41.0 °F 35.8 °F 28.0 °F 60% 29.94 in 10.0 mi North 8.1 mph - N/A   Overcast
6:53 PM 41.0 °F 37.1 °F 27.0 °F 57% 29.97 in 10.0 mi Variable 5.8 mph - N/A   Overcast
7:53 PM 39.0 °F - 28.0 °F 65% 30.00 in 10.0 mi Calm Calm - N/A   Overcast
8:53 PM 39.9 °F 35.1 °F 27.0 °F 60% 30.00 in 10.0 mi NE 6.9 mph - N/A   Overcast
9:53 PM 39.9 °F 35.8 °F 27.0 °F 60% 30.01 in 10.0 mi Variable 5.8 mph - N/A   Overcast
10:53 PM 39.0 °F 33.4 °F 27.0 °F 62% 30.03 in 10.0 mi North 8.1 mph - N/A   Clear